QPF
0.04 0.05 0.05 0.07 0.09 0.11 0.13 0.13 0.14 0.14 0.13 0.11 0.08 0.05 0.05 0.03 0.02 0.01 0.00 0.00 0.00 0.00 0.00 0.00 0.00 0.00 0.00 0.00 0.00 0.00 0.00 0.00 0.00 0.00 0.00 0.00 0.00 0.00
0.03 0.04 0.05 0.06 0.07 0.08 0.10 0.13 0.13 0.13 0.11 0.12 0.11 0.08 0.12 0.10 0.07 0.02 0.01 0.00 0.00 0.00 0.00 0.00 0.00 0.00 0.00 0.00 0.00 0.00 0.00 0.00 0.00 0.00 0.00 0.00 0.00 0.00
0.01 0.02 0.04 0.06 0.07 0.09 0.11 0.12 0.13 0.15 0.11 0.15 0.18 0.11 0.11 0.12 0.09 0.04 0.01 0.01 0.00 0.00 0.00 0.00 0.00 0.00 0.00 0.00 0.00 0.00 0.00 0.00 0.00 0.00 0.00 0.00 0.00 0.00
0.02 0.02 0.04 0.05 0.08 0.10 0.11 0.12 0.14 0.15 0.15 0.15 0.24 0.19 0.13 0.11 0.10 0.08 0.04 0.03 0.02 0.03 0.04 0.01 0.00 0.00 0.00 0.00 0.00 0.00 0.00 0.00 0.00 0.00 0.00 0.00 0.00 0.00
0.01 0.01 0.02 0.04 0.07 0.10 0.11 0.13 0.15 0.17 0.20 0.16 0.21 0.25 0.16 0.13 0.12 0.10 0.08 0.07 0.05 0.05 0.05 0.03 0.01 0.00 0.00 0.00 0.00 0.00 0.00 0.00 0.00 0.00 0.00 0.00 0.00 0.00
0.00 0.00 0.01 0.02 0.05 0.07 0.09 0.12 0.14 0.15 0.16 0.16 0.18 0.20 0.19 0.19 0.14 0.12 0.12 0.12 0.11 0.09 0.05 0.04 0.02 0.01 0.00 0.00 0.00 0.00 0.00 0.00 0.00 0.00 0.00 0.00 0.00 0.00
0.01 0.00 0.01 0.01 0.01 0.02 0.03 0.05 0.08 0.10 0.11 0.12 0.13 0.15 0.17 0.16 0.14 0.13 0.16 0.17 0.16 0.14 0.11 0.09 0.06 0.04 0.03 0.03 0.02 0.01 0.00 0.00 0.00 0.00 0.00 0.00 0.00 0.00
0.01 0.01 0.02 0.01 0.01 0.01 0.00 0.01 0.02 0.05 0.08 0.10 0.11 0.12 0.14 0.15 0.14 0.13 0.14 0.15 0.15 0.13 0.14 0.16 0.14 0.10 0.08 0.08 0.08 0.07 0.03 0.01 0.00 0.00 0.00 0.00 0.00 0.00
0.03 0.03 0.02 0.02 0.02 0.02 0.03 0.02 0.02 0.02 0.02 0.04 0.08 0.11 0.10 0.11 0.11 0.10 0.09 0.10 0.13 0.16 0.15 0.15 0.14 0.12 0.11 0.09 0.07 0.06 0.04 0.02 0.01 0.00 0.00 0.00 0.00 0.00
0.04 0.04 0.04 0.05 0.08 0.06 0.04 0.05 0.05 0.03 0.03 0.02 0.05 0.08 0.08 0.09 0.12 0.12 0.10 0.09 0.10 0.11 0.12 0.13 0.15 0.14 0.12 0.10 0.09 0.07 0.05 0.03 0.01 0.00 0.00 0.00 0.00 0.00
0.08 0.09 0.09 0.09 0.14 0.08 0.03 0.04 0.06 0.06 0.05 0.03 0.02 0.02 0.02 0.03 0.05 0.08 0.11 0.11 0.11 0.12 0.09 0.08 0.11 0.14 0.14 0.14 0.11 0.08 0.05 0.03 0.01 0.01 0.00 0.00 0.00 0.00
0.12 0.11 0.14 0.11 0.11 0.06 0.03 0.07 0.10 0.08 0.04 0.04 0.04 0.03 0.03 0.03 0.02 0.04 0.09 0.11 0.13 0.14 0.12 0.09 0.12 0.13 0.14 0.14 0.11 0.08 0.05 0.03 0.02 0.01 0.00 0.00 0.00 0.00
0.15 0.14 0.12 0.12 0.07 0.04 0.02 0.04 0.06 0.04 0.04 0.06 0.07 0.07 0.09 0.10 0.09 0.07 0.08 0.08 0.09 0.12 0.14 0.11 0.10 0.11 0.09 0.10 0.10 0.08 0.05 0.03 0.02 0.01 0.01 0.02 0.02 0.02
0.13 0.12 0.09 0.08 0.04 0.02 0.01 0.02 0.02 0.03 0.06 0.08 0.09 0.10 0.11 0.12 0.10 0.09 0.07 0.06 0.08 0.08 0.08 0.07 0.06 0.06 0.05 0.04 0.05 0.06 0.05 0.03 0.02 0.02 0.02 0.02 0.03 0.04
0.07 0.08 0.07 0.04 0.03 0.02 0.01 0.02 0.04 0.05 0.06 0.06 0.08 0.08 0.07 0.04 0.04 0.04 0.04 0.04 0.05 0.03 0.02 0.02 0.03 0.04 0.04 0.03 0.02 0.02 0.03 0.03 0.03 0.03 0.03 0.03 0.03 0.03
0.05 0.05 0.05 0.04 0.05 0.04 0.04 0.05 0.05 0.04 0.05 0.05 0.06 0.06 0.04 0.03 0.03 0.03 0.03 0.04 0.06 0.06 0.04 0.03 0.03 0.03 0.03 0.03 0.03 0.03 0.05 0.06 0.05 0.05 0.04 0.03 0.03 0.03
0.06 0.06 0.06 0.05 0.05 0.06 0.07 0.06 0.07 0.06 0.07 0.08 0.08 0.06 0.05 0.04 0.04 0.03 0.02 0.03 0.04 0.05 0.05 0.03 0.02 0.02 0.02 0.03 0.03 0.05 0.07 0.08 0.08 0.07 0.05 0.03 0.03 0.04
0.06 0.05 0.04 0.05 0.06 0.07 0.07 0.06 0.05 0.05 0.07 0.09 0.08 0.05 0.05 0.04 0.03 0.02 0.02 0.03 0.04 0.04 0.03 0.02 0.02 0.01 0.02 0.04 0.03 0.05 0.06 0.06 0.07 0.07 0.05 0.03 0.03 0.05
0.03 0.03 0.04 0.05 0.05 0.04 0.04 0.03 0.01 0.02 0.04 0.05 0.04 0.03 0.03 0.03 0.02 0.03 0.02 0.02 0.02 0.02 0.03 0.02 0.02 0.02 0.02 0.03 0.03 0.01 0.02 0.04 0.05 0.06 0.07 0.05 0.04 0.05
0.02 0.02 0.03 0.03 0.02 0.02 0.01 0.01 0.01 0.01 0.02 0.02 0.02 0.01 0.01 0.01 0.02 0.02 0.02 0.01 0.01 0.01 0.02 0.02 0.02 0.02 0.02 0.02 0.03 0.03 0.01 0.02 0.03 0.04 0.04 0.04 0.04 0.03
0.01 0.01 0.01 0.01 0.01 0.01 0.01 0.01 0.01 0.00 0.00 0.00 0.00 0.00 0.00 0.01 0.01 0.01 0.01 0.01 0.01 0.01 0.01 0.02 0.02 0.00 0.01 0.02 0.03 0.04 0.03 0.01 0.01 0.01 0.02 0.01 0.01 0.02
0.01 0.00 0.00 0.00 0.00 0.00 0.00 0.00 0.00 0.00 0.00 0.00 0.00 0.00 0.00 0.00 0.01 0.01 0.01 0.01 0.01 0.01 0.01 0.01 0.01 0.01 0.01 0.02 0.02 0.02 0.02 0.02 0.01 0.01 0.01 0.01 0.01 0.01
0.00 0.00 0.00 0.00 0.00 0.00 0.00 0.00 0.00 0.00 0.00 0.00 0.00 0.00 0.00 0.00 0.01 0.01 0.01 0.01 0.01 0.01 0.01 0.01 0.01 0.01 0.01 0.02 0.02 0.02 0.02 0.02 0.02 0.02 0.02 0.01 0.01 0.01
MSLP
1014.06 1014.42 1014.81 1015.21 1015.57 1015.86 1016.06 1016.14 1016.12 1016.01 1015.84 1015.66 1015.49 1015.36 1015.31 1015.35 1015.47 1015.68 1015.96 1016.30 1016.69 1017.09 1017.48 1017.84 1018.15 1018.39 1018.55 1018.63 1018.65 1018.63 1018.60 1018.58 1018.59 1018.63 1018.70 1018.77 1018.82 1018.81
1013.71 1014.01 1014.34 1014.69 1015.02 1015.31 1015.51 1015.63 1015.66 1015.61 1015.51 1015.38 1015.25 1015.15 1015.10 1015.12 1015.22 1015.39 1015.63 1015.93 1016.27 1016.65 1017.03 1017.40 1017.74 1018.02 1018.24 1018.40 1018.49 1018.53 1018.55 1018.56 1018.59 1018.64 1018.70 1018.78 1018.83 1018.85
1013.40 1013.63 1013.89 1014.18 1014.47 1014.74 1014.95 1015.10 1015.19 1015.20 1015.18 1015.12 1015.05 1015.00 1014.98 1015.01 1015.08 1015.21 1015.40 1015.63 1015.91 1016.22 1016.56 1016.90 1017.23 1017.54 1017.80 1018.01 1018.17 1018.28 1018.36 1018.41 1018.46 1018.52 1018.59 1018.66 1018.73 1018.77
1013.13 1013.29 1013.50 1013.74 1013.99 1014.23 1014.45 1014.63 1014.76 1014.85 1014.90 1014.92 1014.93 1014.95 1014.97 1015.01 1015.07 1015.17 1015.29 1015.45 1015.64 1015.86 1016.12 1016.40 1016.69 1016.99 1017.27 1017.51 1017.73 1017.89 1018.02 1018.12 1018.20 1018.27 1018.34 1018.42 1018.49 1018.56
1012.91 1013.04 1013.20 1013.39 1013.61 1013.84 1014.06 1014.26 1014.44 1014.58 1014.70 1014.80 1014.89 1014.96 1015.03 1015.10 1015.16 1015.23 1015.30 1015.38 1015.47 1015.60 1015.76 1015.95 1016.18 1016.43 1016.70 1016.96 1017.20 1017.41 1017.59 1017.72 1017.83 1017.91 1017.98 1018.06 1018.14 1018.22
1012.77 1012.87 1013.00 1013.17 1013.37 1013.58 1013.80 1014.01 1014.21 1014.40 1014.57 1014.73 1014.88 1015.01 1015.13 1015.23 1015.30 1015.35 1015.38 1015.40 1015.41 1015.44 1015.50 1015.60 1015.74 1015.93 1016.16 1016.41 1016.66 1016.89 1017.09 1017.26 1017.38 1017.47 1017.55 1017.62 1017.70 1017.79
1012.72 1012.80 1012.92 1013.07 1013.25 1013.45 1013.66 1013.87 1014.07 1014.27 1014.47 1014.66 1014.84 1015.02 1015.18 1015.32 1015.42 1015.47 1015.49 1015.47 1015.43 1015.38 1015.35 1015.35 1015.41 1015.53 1015.70 1015.91 1016.15 1016.39 1016.60 1016.78 1016.91 1017.01 1017.09 1017.15 1017.22 1017.31
1012.75 1012.82 1012.94 1013.08 1013.24 1013.43 1013.61 1013.79 1013.98 1014.16 1014.34 1014.53 1014.73 1014.94 1015.13 1015.31 1015.44 1015.53 1015.56 1015.54 1015.47 1015.38 1015.29 1015.22 1015.21 1015.25 1015.36 1015.52 1015.72 1015.94 1016.15 1016.33 1016.47 1016.58 1016.64 1016.70 1016.75 1016.83
1012.87 1012.94 1013.05 1013.19 1013.33 1013.49 1013.63 1013.77 1013.90 1014.03 1014.18 1014.34 1014.53 1014.74 1014.95 1015.16 1015.35 1015.48 1015.56 1015.57 1015.51 1015.41 1015.29 1015.18 1015.11 1015.09 1015.13 1015.24 1015.40 1015.59 1015.78 1015.95 1016.09 1016.19 1016.25 1016.29 1016.32 1016.38
1013.08 1013.15 1013.25 1013.37 1013.50 1013.61 1013.71 1013.79 1013.85 1013.91 1013.99 1014.10 1014.25 1014.45 1014.67 1014.91 1015.15 1015.34 1015.48 1015.54 1015.53 1015.46 1015.34 1015.21 1015.10 1015.03 1015.02 1015.08 1015.18 1015.33 1015.49 1015.65 1015.78 1015.87 1015.92 1015.95 1015.96 1015.98
1013.37 1013.44 1013.53 1013.63 1013.73 1013.81 1013.85 1013.86 1013.85 1013.83 1013.83 1013.88 1013.98 1014.14 1014.36 1014.62 1014.89 1015.15 1015.35 1015.48 1015.53 1015.50 1015.41 1015.29 1015.16 1015.06 1015.00 1015.00 1015.06 1015.16 1015.28 1015.41 1015.52 1015.60 1015.65 1015.66 1015.65 1015.65
1013.75 1013.80 1013.88 1013.96 1014.03 1014.07 1014.07 1014.02 1013.94 1013.85 1013.78 1013.75 1013.80 1013.92 1014.12 1014.39 1014.68 1014.97 1015.23 1015.42 1015.53 1015.55 1015.49 1015.39 1015.26 1015.13 1015.03 1014.99 1014.99 1015.05 1015.13 1015.23 1015.32 1015.39 1015.42 1015.42 1015.40 1015.36
1014.19 1014.23 1014.29 1014.36 1014.41 1014.42 1014.38 1014.29 1014.16 1014.02 1013.89 1013.81 1013.80 1013.88 1014.05 1014.30 1014.59 1014.90 1015.18 1015.41 1015.56 1015.62 1015.59 1015.51 1015.38 1015.23 1015.11 1015.03 1014.99 1014.99 1015.04 1015.10 1015.16 1015.21 1015.23 1015.22 1015.18 1015.13
1014.70 1014.71 1014.76 1014.82 1014.86 1014.86 1014.81 1014.70 1014.55 1014.38 1014.22 1014.09 1014.04 1014.08 1014.20 1014.41 1014.68 1014.97 1015.25 1015.49 1015.65 1015.73 1015.72 1015.64 1015.52 1015.37 1015.22 1015.10 1015.03 1014.99 1014.99 1015.02 1015.05 1015.07 1015.07 1015.05 1015.00 1014.94
1015.26 1015.25 1015.29 1015.34 1015.38 1015.39 1015.34 1015.25 1015.10 1014.93 1014.76 1014.61 1014.53 1014.52 1014.60 1014.76 1014.97 1015.22 1015.47 1015.67 1015.82 1015.89 1015.89 1015.81 1015.68 1015.53 1015.37 1015.23 1015.12 1015.05 1015.01 1015.00 1015.00 1014.99 1014.98 1014.94 1014.88 1014.80
1015.85 1015.83 1015.86 1015.91 1015.96 1015.98 1015.96 1015.89 1015.77 1015.62 1015.46 1015.32 1015.22 1015.18 1015.20 1015.30 1015.45 1015.62 1015.80 1015.96 1016.07 1016.11 1016.09 1016.01 1015.88 1015.72 1015.56 1015.41 1015.28 1015.18 1015.12 1015.07 1015.04 1015.00 1014.96 1014.90 1014.82 1014.73
1016.49 1016.45 1016.46 1016.51 1016.57 1016.61 1016.62 1016.59 1016.51 1016.40 1016.27 1016.14 1016.03 1015.95 1015.93 1015.96 1016.03 1016.13 1016.23 1016.32 1016.38 1016.38 1016.34 1016.25 1016.12 1015.97 1015.81 1015.66 1015.53 1015.42 1015.33 1015.25 1015.19 1015.12 1015.05 1014.96 1014.87 1014.76
1017.15 1017.09 1017.10 1017.14 1017.20 1017.26 1017.30 1017.30 1017.26 1017.19 1017.08 1016.97 1016.85 1016.76 1016.70 1016.67 1016.67 1016.68 1016.71 1016.73 1016.72 1016.69 1016.63 1016.53 1016.41 1016.27 1016.13 1015.99 1015.87 1015.75 1015.66 1015.56 1015.47 1015.37 1015.27 1015.16 1015.04 1014.91
1017.82 1017.76 1017.75 1017.78 1017.84 1017.90 1017.95 1017.97 1017.96 1017.91 1017.83 1017.73 1017.62 1017.51 1017.42 1017.34 1017.27 1017.22 1017.18 1017.14 1017.09 1017.02 1016.94 1016.85 1016.74 1016.63 1016.51 1016.40 1016.29 1016.19 1016.09 1015.99 1015.87 1015.75 1015.62 1015.48 1015.33 1015.18
1018.49 1018.42 1018.40 1018.42 1018.46 1018.51 1018.56 1018.58 1018.58 1018.55 1018.48 1018.39 1018.28 1018.16 1018.04 1017.92 1017.81 1017.71 1017.62 1017.54 1017.46 1017.37 1017.29 1017.20 1017.11 1017.03 1016.95 1016.87 1016.79 1016.70 1016.61 1016.50 1016.38 1016.24 1016.09 1015.92 1015.74 1015.56
1019.13 1019.07 1019.04 1019.04 1019.06 1019.09 1019.11 1019.12 1019.11 1019.08 1019.01 1018.92 1018.80 1018.68 1018.54 1018.40 1018.27 1018.15 1018.03 1017.92 1017.82 1017.73 1017.65 1017.58 1017.52 1017.47 1017.42 1017.37 1017.31 1017.25 1017.17 1017.07 1016.95 1016.80 1016.63 1016.45 1016.25 1016.05
1019.71 1019.66 1019.63 1019.61 1019.61 1019.61 1019.61 1019.59 1019.56 1019.51 1019.43 1019.33 1019.21 1019.08 1018.94 1018.79 1018.65 1018.52 1018.39 1018.28 1018.18 1018.10 1018.03 1017.98 1017.94 1017.91 1017.89 1017.87 1017.84 1017.80 1017.74 1017.65 1017.53 1017.39 1017.22 1017.02 1016.82 1016.60
1020.20 1020.17 1020.14 1020.12 1020.10 1020.07 1020.03 1019.99 1019.93 1019.85 1019.76 1019.65 1019.53 1019.40 1019.26 1019.12 1018.98 1018.85 1018.73 1018.62 1018.54 1018.47 1018.41 1018.38 1018.36 1018.35 1018.35 1018.35 1018.34 1018.32 1018.27 1018.20 1018.10 1017.96 1017.80 1017.61 1017.40 1017.18
Thickness
5706 5705 5703 5702 5701 5699 5697 5694 5687 5681 5683 5691 5694 5699 5699 5697 5695 5693 5692 5691 5690 5689 5688 5687 5687 5687 5688 5689 5690 5692 5693 5694 5695 5696 5698 5699 5701 5703
5700 5698 5697 5697 5696 5695 5694 5692 5689 5684 5681 5687 5690 5693 5694 5693 5690 5689 5689 5689 5688 5687 5685 5684 5684 5684 5684 5685 5685 5686 5687 5688 5689 5690 5691 5693 5694 5696
5694 5693 5693 5693 5691 5690 5689 5688 5686 5683 5679 5682 5686 5688 5688 5686 5684 5684 5685 5686 5684 5684 5683 5682 5682 5681 5681 5681 5681 5681 5682 5683 5684 5685 5686 5687 5688 5690
5688 5689 5689 5689 5687 5686 5685 5683 5682 5681 5678 5676 5679 5681 5681 5682 5681 5680 5681 5682 5682 5682 5681 5680 5679 5679 5678 5678 5678 5678 5678 5679 5680 5680 5681 5683 5683 5684
5686 5685 5685 5685 5682 5682 5681 5679 5679 5679 5677 5675 5675 5677 5676 5676 5675 5676 5677 5677 5678 5679 5678 5677 5676 5676 5676 5676 5675 5675 5675 5676 5676 5677 5677 5678 5678 5679
5683 5683 5682 5680 5677 5677 5676 5675 5674 5673 5672 5671 5670 5671 5670 5671 5669 5668 5668 5669 5671 5674 5674 5673 5673 5673 5674 5674 5674 5673 5673 5673 5673 5674 5674 5674 5674 5674
5678 5677 5675 5674 5672 5671 5670 5668 5668 5667 5666 5666 5665 5664 5664 5663 5663 5664 5662 5663 5664 5666 5667 5669 5669 5669 5670 5671 5671 5672 5672 5672 5671 5671 5671 5671 5670 5670
5670 5670 5669 5668 5667 5665 5664 5664 5663 5661 5659 5659 5659 5658 5659 5659 5660 5659 5658 5656 5655 5660 5661 5662 5664 5665 5667 5668 5670 5670 5670 5669 5669 5668 5668 5667 5667 5667
5663 5663 5664 5663 5660 5659 5658 5658 5658 5657 5656 5655 5653 5654 5655 5655 5655 5654 5653 5652 5651 5654 5654 5655 5658 5659 5662 5664 5666 5667 5666 5665 5665 5664 5664 5663 5663 5663
5656 5656 5655 5653 5652 5652 5652 5652 5652 5652 5652 5651 5651 5651 5652 5651 5651 5650 5649 5648 5649 5649 5649 5648 5651 5653 5657 5658 5659 5660 5660 5659 5659 5659 5659 5658 5658 5658
5647 5646 5646 5644 5643 5645 5646 5646 5646 5646 5647 5647 5647 5647 5646 5646 5646 5644 5643 5641 5641 5643 5644 5642 5644 5646 5649 5651 5652 5652 5652 5651 5651 5651 5651 5651 5651 5650
5637 5637 5636 5636 5636 5637 5637 5638 5637 5638 5641 5641 5640 5641 5641 5640 5640 5639 5638 5636 5635 5636 5638 5637 5638 5639 5640 5643 5645 5645 5644 5644 5644 5643 5643 5643 5642 5641
5628 5628 5626 5628 5629 5630 5631 5631 5630 5632 5635 5635 5634 5634 5634 5635 5634 5635 5635 5633 5631 5631 5633 5632 5632 5632 5631 5632 5635 5636 5636 5635 5635 5635 5635 5634 5633 5632
5619 5619 5618 5620 5622 5623 5625 5626 5627 5628 5628 5628 5627 5625 5625 5626 5627 5629 5630 5630 5629 5628 5628 5627 5625 5624 5623 5622 5623 5626 5626 5626 5627 5626 5626 5625 5623 5622
5610 5611 5613 5615 5616 5617 5618 5620 5621 5621 5621 5619 5618 5618 5619 5620 5621 5622 5623 5623 5623 5623 5622 5621 5619 5617 5616 5614 5613 5614 5615 5616 5616 5615 5615 5613 5612 5611
5606 5606 5608 5609 5610 5611 5612 5613 5614 5614 5613 5612 5612 5613 5614 5614 5614 5614 5614 5614 5613 5613 5614 5614 5613 5611 5608 5607 5606 5604 5604 5603 5603 5603 5603 5602 5601 5600
5601 5602 5602 5602 5602 5603 5604 5605 5606 5606 5606 5607 5607 5607 5607 5607 5607 5608 5607 5607 5605 5604 5603 5605 5605 5604 5603 5600 5597 5595 5593 5592 5591 5590 5589 5588 5588 5587
5597 5596 5595 5595 5595 5596 5596 5596 5597 5598 5600 5601 5601 5601 5601 5602 5602 5602 5601 5599 5597 5596 5595 5595 5594 5593 5592 5590 5586 5583 5581 5578 5578 5577 5576 5574 5573 5572
5593 5592 5591 5591 5591 5591 5591 5591 5592 5593 5595 5595 5595 5596 5596 5597 5596 5595 5594 5593 5591 5589 5588 5587 5584 5581 5577 5574 5573 5571 5568 5565 5564 5562 5561 5559 5557 5556
5590 5589 5588 5588 5588 5588 5589 5589 5590 5590 5591 5591 5591 5591 5591 5591 5591 5590 5589 5587 5585 5584 5581 5579 5576 5572 5568 5564 5562 5559 5557 5554 5551 5548 5547 5546 5544 5542
5590 5589 5588 5588 5587 5588 5588 5589 5589 5589 5589 5588 5588 5588 5588 5588 5587 5587 5585 5584 5582 5579 5575 5572 5570 5568 5564 5560 5554 5549 5546 5544 5540 5536 5534 5532 5530 5528
5592 5590 5589 5588 5588 5588 5588 5588 5589 5588 5587 5587 5586 5586 5586 5586 5585 5584 5583 5581 5578 5575 5572 5569 5567 5563 5558 5552 5546 5541 5537 5534 5531 5527 5524 5520 5516 5514
5594 5592 5591 5590 5589 5589 5589 5589 5589 5588 5587 5586 5586 5586 5586 5585 5584 5583 5581 5579 5576 5573 5569 5565 5562 5559 5553 5548 5541 5535 5531 5527 5524 5519 5516 5512 5508 5505